| time (UTC) | temp F | wind direction | speed knots | gust knots | rain 1hr in | rain 24hr in | rain mn in | humidity % | barometer mb |
| 20260509201505 | 77 | 212 | 7.0 | 10.4 | 0.00 | 0.10 | 0.10 | 51 | 1006.2 |
| 20260509201005 | 77 | 213 | 7.8 | 13.0 | 0.00 | 0.10 | 0.10 | 55 | 1006.1 |
| 20260509200506 | 76 | 226 | 4.3 | 8.7 | 0.00 | 0.10 | 0.10 | 56 | 1006.2 |
| 20260509200005 | 76 | 205 | 5.2 | 11.3 | 0.00 | 0.10 | 0.10 | 52 | 1006.4 |
| 20260509195505 | 76 | 217 | 6.1 | 13.0 | 0.00 | 0.10 | 0.10 | 59 | 1006.4 |
| 20260509195005 | 76 | 186 | 7.0 | 14.8 | 0.00 | 0.10 | 0.10 | 60 | 1006.5 |
| 20260509194505 | 76 | 224 | 6.1 | 12.2 | 0.00 | 0.10 | 0.10 | 57 | 1006.4 |
| 20260509194005 | 76 | 212 | 5.2 | 10.4 | 0.00 | 0.10 | 0.10 | 58 | 1006.5 |
| 20260509193506 | 75 | 187 | 5.2 | 13.0 | 0.00 | 0.10 | 0.10 | 60 | 1006.4 |
| 20260509193006 | 75 | 184 | 6.1 | 12.2 | 0.00 | 0.10 | 0.10 | 59 | 1006.4 |
| 20260509192505 | 75 | 206 | 5.2 | 10.4 | 0.00 | 0.10 | 0.10 | 59 | 1006.5 |
| 20260509191005 | 74 | 181 | 4.3 | 12.2 | 0.00 | 0.10 | 0.10 | 59 | 1006.6 |
| 20260509190505 | 74 | 208 | 6.1 | 20.9 | 0.00 | 0.10 | 0.10 | 59 | 1006.7 |
| 20260509190006 | 74 | 185 | 7.8 | 13.0 | 0.00 | 0.10 | 0.10 | 60 | 1006.7 |
| 20260509185005 | 73 | 222 | 6.1 | 12.2 | 0.00 | 0.10 | 0.10 | 63 | 1006.9 |
| 20260509184505 | 73 | 218 | 7.0 | 10.4 | 0.00 | 0.10 | 0.10 | 64 | 1006.9 |
| 20260509184005 | 73 | 224 | 7.8 | 12.2 | 0.00 | 0.10 | 0.10 | 63 | 1006.9 |
| 20260509183505 | 73 | 235 | 7.8 | 10.4 | 0.00 | 0.10 | 0.10 | 63 | 1006.9 |
| 20260509183005 | 73 | 208 | 5.2 | 8.7 | 0.00 | 0.10 | 0.10 | 65 | 1007.0 |
| 20260509182505 | 73 | 218 | 4.3 | 12.2 | 0.00 | 0.10 | 0.10 | 65 | 1007.0 |
| 20260509182005 | 72 | 210 | 8.7 | 12.2 | 0.00 | 0.10 | 0.10 | 65 | 1007.0 |
| 20260509181505 | 72 | 195 | 5.2 | 8.7 | 0.00 | 0.10 | 0.10 | 65 | 1007.1 |
| 20260509181005 | 72 | 196 | 5.2 | 10.4 | 0.00 | 0.10 | 0.10 | 66 | 1007.1 |
| 20260509180505 | 72 | 248 | 5.2 | 11.3 | 0.00 | 0.10 | 0.10 | 66 | 1007.1 |
| 20260509180005 | 72 | 206 | 5.2 | 10.4 | 0.00 | 0.10 | 0.10 | 65 | 1007.3 |
| 20260509175505 | 72 | 207 | 5.2 | 10.4 | 0.00 | 0.10 | 0.10 | 66 | 1007.4 |
| 20260509175005 | 71 | 256 | 5.2 | 11.3 | 0.00 | 0.10 | 0.10 | 65 | 1007.4 |
| 20260509174505 | 71 | 231 | 5.2 | 10.4 | 0.00 | 0.10 | 0.10 | 68 | 1007.4 |
| 20260509174006 | 71 | 197 | 5.2 | 7.8 | 0.00 | 0.10 | 0.10 | 69 | 1007.4 |
| 20260509173505 | 70 | 205 | 6.1 | 10.4 | 0.00 | 0.10 | 0.10 | 68 | 1007.5 |
| 20260509173005 | 70 | 227 | 7.8 | 10.4 | 0.00 | 0.10 | 0.10 | 69 | 1007.4 |
| 20260509172505 | 70 | 218 | 3.5 | 10.4 | 0.00 | 0.10 | 0.10 | 69 | 1007.6 |
| 20260509172005 | 69 | 197 | 4.3 | 10.4 | 0.00 | 0.10 | 0.10 | 68 | 1007.6 |
| 20260509171505 | 70 | 225 | 5.2 | 10.4 | 0.00 | 0.10 | 0.10 | 68 | 1007.7 |
| 20260509171005 | 69 | 209 | 6.1 | 8.7 | 0.00 | 0.10 | 0.10 | 69 | 1007.7 |
| 20260509170505 | 69 | 213 | 5.2 | 10.4 | 0.00 | 0.10 | 0.10 | 71 | 1007.7 |
| 20260509170005 | 69 | 215 | 5.2 | 10.4 | 0.00 | 0.10 | 0.10 | 70 | 1007.7 |
| 20260509165505 | 69 | 259 | 7.0 | 13.9 | 0.00 | 0.10 | 0.10 | 68 | 1007.8 |
| 20260509165005 | 68 | 205 | 6.1 | 11.3 | 0.00 | 0.10 | 0.10 | 70 | 1007.8 |
| 20260509164505 | 68 | 209 | 7.8 | 11.3 | 0.00 | 0.10 | 0.10 | 71 | 1007.7 |
| 20260509164005 | 68 | 211 | 5.2 | 12.2 | 0.00 | 0.10 | 0.10 | 72 | 1007.7 |
| 20260509163005 | 68 | 250 | 6.1 | 10.4 | 0.00 | 0.10 | 0.10 | 72 | 1007.6 |
| 20260509162505 | 68 | 256 | 5.2 | 8.7 | 0.00 | 0.10 | 0.10 | 73 | 1007.5 |
| 20260509161005 | 66 | 222 | 2.6 | 7.8 | 0.00 | 0.10 | 0.10 | 75 | 1007.4 |
| 20260509160505 | 66 | 247 | 3.5 | 8.7 | 0.00 | 0.10 | 0.10 | 74 | 1007.5 |
| 20260509160005 | 66 | 243 | 6.1 | 8.7 | 0.00 | 0.10 | 0.10 | 74 | 1007.4 |
| 20260509155505 | 65 | 237 | 4.3 | 7.8 | 0.00 | 0.10 | 0.10 | 75 | 1007.6 |
| 20260509155005 | 65 | 211 | 4.3 | 8.7 | 0.00 | 0.10 | 0.10 | 77 | 1007.6 |
| 20260509154505 | 65 | 227 | 3.5 | 7.8 | 0.00 | 0.10 | 0.10 | 76 | 1007.4 |
| 20260509153505 | 65 | 198 | 2.6 | 6.1 | 0.00 | 0.10 | 0.10 | 79 | 1007.4 |
| 20260509153005 | 64 | 230 | 4.3 | 10.4 | 0.00 | 0.10 | 0.10 | 77 | 1007.5 |
| 20260509152504 | 65 | 221 | 6.1 | 10.4 | 0.00 | 0.10 | 0.10 | 77 | 1007.4 |
| 20260509152005 | 65 | 232 | 4.3 | 7.0 | 0.00 | 0.10 | 0.10 | 78 | 1007.5 |
| 20260509151005 | 65 | 201 | 5.2 | 10.4 | 0.00 | 0.10 | 0.10 | 77 | 1007.4 |
| 20260509150505 | 65 | 226 | 4.3 | 7.8 | 0.00 | 0.10 | 0.10 | 77 | 1007.4 |
| 20260509150005 | 65 | 276 | 5.2 | 8.7 | 0.00 | 0.10 | 0.10 | 78 | 1007.3 |
| 20260509145504 | 65 | 231 | 4.3 | 10.4 | 0.00 | 0.10 | 0.10 | 78 | 1007.3 |
| 20260509145005 | 65 | 248 | 7.0 | 12.2 | 0.00 | 0.10 | 0.10 | 78 | 1007.2 |
| 20260509144504 | 64 | 197 | 6.1 | 11.3 | 0.00 | 0.10 | 0.10 | 78 | 1007.1 |
| 20260509144006 | 64 | 189 | 4.3 | 7.8 | 0.00 | 0.10 | 0.10 | 81 | 1007.1 |
| 20260509143505 | 64 | 208 | 4.3 | 10.4 | 0.00 | 0.10 | 0.10 | 81 | 1007.1 |
| 20260509143004 | 64 | 212 | 3.5 | 7.8 | 0.00 | 0.10 | 0.10 | 83 | 1007.0 |
| 20260509142505 | 63 | 193 | 2.6 | 8.7 | 0.00 | 0.10 | 0.10 | 84 | 1007.1 |
| 20260509142005 | 63 | 232 | 4.3 | 8.7 | 0.00 | 0.10 | 0.10 | 84 | 1007.2 |
| 20260509141505 | 63 | 205 | 4.3 | 7.0 | 0.00 | 0.10 | 0.10 | 84 | 1007.3 |
| 20260509141005 | 63 | 208 | 2.6 | 4.3 | 0.00 | 0.10 | 0.10 | 85 | 1007.2 |
| 20260509135005 | 62 | 193 | 2.6 | 7.0 | 0.00 | 0.10 | 0.10 | 87 | 1006.9 |
| 20260509134504 | 62 | 212 | 2.6 | 5.2 | 0.00 | 0.10 | 0.10 | 88 | 1006.8 |
| 20260509134005 | 61 | 192 | 1.7 | 7.0 | 0.00 | 0.10 | 0.10 | 90 | 1006.8 |
| 20260509133506 | 61 | 190 | 2.6 | 7.8 | 0.00 | 0.10 | 0.10 | 90 | 1006.9 |
| 20260509133005 | 61 | 211 | 1.7 | 5.2 | 0.00 | 0.10 | 0.10 | 91 | 1006.8 |
| 20260509132505 | 60 | 193 | 2.6 | 5.2 | 0.00 | 0.10 | 0.10 | 92 | 1006.8 |
| 20260509132005 | 60 | 184 | 2.6 | 5.2 | 0.00 | 0.10 | 0.10 | 92 | 1006.8 |
| 20260509131505 | 60 | 185 | 2.6 | 5.2 | 0.00 | 0.10 | 0.10 | 93 | 1006.8 |
| 20260509130505 | 59 | 199 | 1.7 | 2.6 | 0.00 | 0.10 | 0.10 | 95 | 1006.7 |
| 20260509130005 | 59 | 196 | 1.7 | 4.3 | 0.00 | 0.10 | 0.10 | 95 | 1006.7 |
| 20260509125005 | 58 | 196 | 1.7 | 6.1 | 0.00 | 0.10 | 0.10 | 96 | 1006.8 |
| 20260509124504 | 58 | 196 | 1.7 | 5.2 | 0.00 | 0.10 | 0.10 | 96 | 1006.7 |
| 20260509123505 | 57 | 215 | 2.6 | 6.1 | 0.00 | 0.10 | 0.10 | 96 | 1006.8 |
| 20260509123005 | 57 | 212 | 2.6 | 5.2 | 0.00 | 0.10 | 0.10 | 96 | 1006.8 |
| 20260509122005 | 57 | 196 | 2.6 | 5.2 | 0.00 | 0.10 | 0.10 | 96 | 1006.7 |
| 20260509121504 | 57 | 210 | 1.7 | 2.6 | 0.00 | 0.10 | 0.10 | 96 | 1006.8 |
| 20260509121004 | 57 | 202 | 1.7 | 2.6 | 0.00 | 0.10 | 0.10 | 96 | 1006.8 |
| 20260509120505 | 57 | 201 | 1.7 | 2.6 | 0.00 | 0.10 | 0.10 | 96 | 1006.8 |
| 20260509120005 | 57 | 198 | 1.7 | 2.6 | 0.00 | 0.10 | 0.10 | 96 | 1006.8 |
| 20260509115506 | 56 | 194 | 1.7 | 2.6 | 0.00 | 0.10 | 0.10 | 96 | 1006.7 |
| 20260509115004 | 56 | 173 | 0.9 | 2.6 | 0.00 | 0.10 | 0.10 | 96 | 1006.7 |
| 20260509114505 | 56 | 173 | 0.9 | 2.6 | 0.00 | 0.10 | 0.10 | 96 | 1006.5 |
| 20260509113505 | 56 | 171 | 0.9 | 1.7 | 0.00 | 0.10 | 0.10 | 96 | 1006.1 |
| 20260509113005 | 56 | 171 | 0.0 | 0.9 | 0.00 | 0.10 | 0.10 | 96 | 1006.0 |
| 20260509112504 | 56 | 171 | 0.0 | 0.9 | 0.00 | 0.10 | 0.10 | 96 | 1006.0 |
| 20260509112004 | 56 | 171 | 0.9 | 1.7 | 0.00 | 0.10 | 0.10 | 96 | 1006.0 |
| 20260509111505 | 56 | 171 | 0.0 | 1.7 | 0.00 | 0.10 | 0.10 | 96 | 1005.9 |
| 20260509110505 | 56 | 171 | 0.9 | 2.6 | 0.00 | 0.10 | 0.10 | 96 | 1006.0 |
| 20260509110004 | 56 | 171 | 0.0 | 1.7 | 0.00 | 0.10 | 0.10 | 95 | 1005.9 |
| 20260509105504 | 56 | 171 | 0.9 | 2.6 | 0.00 | 0.10 | 0.10 | 95 | 1005.9 |
| 20260509104504 | 56 | 171 | 0.9 | 1.7 | 0.00 | 0.10 | 0.10 | 95 | 1005.7 |
| 20260509104004 | 56 | 171 | 1.7 | 4.3 | 0.00 | 0.10 | 0.10 | 95 | 1005.6 |
| 20260509103504 | 56 | 144 | 0.9 | 2.6 | 0.00 | 0.10 | 0.10 | 95 | 1005.5 |
| 20260509103004 | 56 | 144 | 0.0 | 1.7 | 0.00 | 0.10 | 0.10 | 95 | 1005.6 |
| 20260509102505 | 56 | 144 | 0.0 | 1.7 | 0.00 | 0.10 | 0.10 | 95 | 1005.6 |
| 20260509102005 | 56 | 144 | 0.9 | 2.6 | 0.00 | 0.10 | 0.10 | 95 | 1005.4 |
| 20260509101504 | 56 | 123 | 0.0 | 0.9 | 0.00 | 0.10 | 0.10 | 95 | 1005.4 |
| 20260509100505 | 56 | 121 | 0.0 | 0.9 | 0.00 | 0.10 | 0.10 | 95 | 1005.3 |
| 20260509100005 | 56 | 121 | 0.9 | 2.6 | 0.00 | 0.10 | 0.10 | 95 | 1005.3 |
| 20260509095504 | 56 | 126 | 0.0 | 1.7 | 0.00 | 0.10 | 0.10 | 95 | 1005.4 |
| 20260509095004 | 56 | 126 | 0.9 | 2.6 | 0.00 | 0.10 | 0.10 | 95 | 1005.3 |
| 20260509094005 | 56 | 150 | 0.0 | 2.6 | 0.00 | 0.10 | 0.10 | 95 | 1005.2 |
| 20260509093504 | 56 | 57 | 0.9 | 2.6 | 0.00 | 0.10 | 0.10 | 95 | 1005.3 |
| 20260509093004 | 57 | 163 | 0.0 | 2.6 | 0.00 | 0.10 | 0.10 | 95 | 1005.3 |
| 20260509092004 | 56 | 113 | 0.9 | 2.6 | 0.00 | 0.10 | 0.10 | 95 | 1005.4 |
| 20260509091504 | 57 | 153 | 0.9 | 2.6 | 0.01 | 0.10 | 0.10 | 95 | 1005.5 |
| 20260509091005 | 57 | 98 | 0.0 | 0.9 | 0.01 | 0.10 | 0.10 | 95 | 1005.6 |
| 20260509090004 | 57 | 98 | 0.0 | 2.6 | 0.03 | 0.10 | 0.10 | 95 | 1005.7 |
| 20260509085504 | 57 | 90 | 0.0 | 0.9 | 0.03 | 0.10 | 0.10 | 95 | 1005.7 |
| 20260509085004 | 57 | 90 | 0.0 | 1.7 | 0.04 | 0.10 | 0.10 | 95 | 1005.6 |
| 20260509084504 | 57 | 90 | 1.7 | 2.6 | 0.04 | 0.10 | 0.10 | 95 | 1005.8 |
| 20260509084004 | 57 | 88 | 1.7 | 2.6 | 0.04 | 0.10 | 0.10 | 95 | 1005.7 |
| 20260509083005 | 57 | 70 | 1.7 | 2.6 | 0.05 | 0.10 | 0.10 | 95 | 1005.9 |
| 20260509082504 | 57 | 54 | 2.6 | 5.2 | 0.07 | 0.10 | 0.10 | 95 | 1006.1 |
| 20260509082005 | 57 | 336 | 1.7 | 2.6 | 0.09 | 0.10 | 0.10 | 95 | 1006.7 |
| 20260509081504 | 57 | 300 | 0.9 | 1.7 | 0.08 | 0.09 | 0.09 | 95 | 1006.7 |
| 20260509081005 | 57 | 300 | 0.9 | 1.7 | 0.08 | 0.09 | 0.09 | 94 | 1006.6 |
| 20260509080005 | 57 | 50 | 1.7 | 4.3 | 0.06 | 0.07 | 0.07 | 94 | 1006.5 |
| 20260509075505 | 57 | 128 | 0.9 | 2.6 | 0.06 | 0.07 | 0.07 | 94 | 1006.7 |
| 20260509075004 | 57 | 137 | 0.0 | 2.6 | 0.05 | 0.06 | 0.06 | 94 | 1006.7 |
| 20260509074504 | 57 | 94 | 0.9 | 2.6 | 0.05 | 0.06 | 0.06 | 94 | 1006.5 |
| 20260509074004 | 57 | 88 | 2.6 | 6.1 | 0.05 | 0.06 | 0.06 | 94 | 1006.4 |
| 20260509073504 | 57 | 3 | 2.6 | 5.2 | 0.05 | 0.06 | 0.06 | 94 | 1006.5 |
| 20260509072505 | 57 | 317 | 0.0 | 2.6 | 0.02 | 0.03 | 0.03 | 94 | 1007.3 |
| 20260509072004 | 57 | 32 | 0.0 | 2.6 | 0.00 | 0.01 | 0.01 | 94 | 1006.9 |
| 20260509071504 | 57 | 52 | 0.9 | 1.7 | 0.00 | 0.01 | 0.01 | 94 | 1006.9 |
| 20260509071004 | 57 | 52 | 0.9 | 2.6 | 0.00 | 0.01 | 0.01 | 94 | 1006.9 |
| 20260509070505 | 57 | 53 | 0.9 | 2.6 | 0.01 | 0.01 | 0.01 | 94 | 1006.7 |
| 20260509070004 | 57 | 53 | 1.7 | 7.0 | 0.01 | 0.01 | 0.01 | 94 | 1006.6 |
| 20260509065504 | 57 | 63 | 1.7 | 4.3 | 0.01 | 0.01 | 0.01 | 94 | 1006.8 |
| 20260509065004 | 58 | 47 | 0.9 | 2.6 | 0.01 | 0.01 | 0.01 | 94 | 1007.0 |
| 20260509064505 | 58 | 46 | 0.9 | 2.6 | 0.01 | 0.01 | 0.01 | 94 | 1007.1 |
| 20260509064005 | 58 | 46 | 1.7 | 2.6 | 0.01 | 0.01 | 0.01 | 94 | 1007.2 |
| 20260509063004 | 58 | 19 | 0.9 | 2.6 | 0.01 | 0.01 | 0.01 | 94 | 1007.1 |
| 20260509062504 | 58 | 8 | 0.9 | 2.6 | 0.01 | 0.01 | 0.01 | 94 | 1007.2 |
| 20260509062004 | 58 | 8 | 0.9 | 2.6 | 0.01 | 0.01 | 0.01 | 93 | 1007.2 |
| 20260509061504 | 58 | 48 | 1.7 | 2.6 | 0.01 | 0.01 | 0.01 | 93 | 1007.2 |
| 20260509061005 | 58 | 49 | 0.9 | 2.6 | 0.01 | 0.01 | 0.01 | 93 | 1007.3 |
| 20260509060505 | 58 | 47 | 1.7 | 2.6 | 0.00 | 0.00 | 0.00 | 93 | 1007.3 |
| 20260509060005 | 58 | 28 | 1.7 | 4.3 | 0.00 | 0.00 | 0.00 | 93 | 1007.5 |
| 20260509055504 | 58 | 5 | 1.7 | 4.3 | 0.00 | 0.00 | 0.00 | 93 | 1007.5 |
| 20260509055005 | 58 | 15 | 1.7 | 5.2 | 0.00 | 0.00 | 0.00 | 93 | 1007.5 |
| 20260509054504 | 58 | 39 | 0.9 | 2.6 | 0.00 | 0.00 | 0.00 | 93 | 1007.5 |
| 20260509054005 | 58 | 31 | 0.9 | 2.6 | 0.00 | 0.00 | 0.00 | 93 | 1007.5 |
| 20260509053504 | 58 | 30 | 0.9 | 4.3 | 0.00 | 0.00 | 0.00 | 93 | 1007.5 |
| 20260509053005 | 58 | 26 | 1.7 | 2.6 | 0.00 | 0.00 | 0.00 | 93 | 1007.3 |
| 20260509052504 | 58 | 37 | 1.7 | 6.1 | 0.00 | 0.00 | 0.00 | 93 | 1007.2 |
| 20260509052005 | 58 | 61 | 2.6 | 4.3 | 0.00 | 0.00 | 0.00 | 93 | 1007.1 |
| 20260509051504 | 58 | 60 | 1.7 | 4.3 | 0.00 | 0.00 | 0.00 | 93 | 1007.2 |
| 20260509051005 | 58 | 80 | 0.9 | 4.3 | 0.00 | 0.00 | 0.00 | 93 | 1007.2 |
| 20260509050504 | 58 | 75 | 2.6 | 6.1 | 0.00 | 0.00 | 0.00 | 93 | 1007.2 |
| 20260509050005 | 58 | 33 | 1.7 | 5.2 | 0.00 | 0.00 | 0.00 | 93 | 1007.2 |
| 20260509045505 | 58 | 53 | 1.7 | 4.3 | 0.00 | 0.00 | 0.00 | 93 | 1007.2 |
| 20260509044004 | 59 | 36 | 1.7 | 4.3 | 0.00 | 0.00 | 0.00 | 93 | 1007.2 |
| 20260509043504 | 59 | 60 | 1.7 | 6.1 | 0.00 | 0.00 | 0.00 | 93 | 1007.2 |
| 20260509043005 | 59 | 28 | 0.9 | 4.3 | 0.00 | 0.00 | 0.00 | 93 | 1007.3 |
| 20260509042504 | 59 | 333 | 1.7 | 4.3 | 0.00 | 0.00 | 0.00 | 93 | 1007.4 |
| 20260509042004 | 59 | 355 | 1.7 | 2.6 | 0.00 | 0.00 | 0.00 | 93 | 1007.2 |
| 20260509041505 | 59 | 11 | 1.7 | 4.3 | 0.00 | 0.00 | 0.00 | 93 | 1007.1 |
| 20260509040505 | 59 | 33 | 1.7 | 2.6 | 0.00 | 0.00 | 0.00 | 92 | 1007.0 |
| 20260509040006 | 59 | 42 | 0.9 | 1.7 | 0.00 | 0.00 | 0.00 | 92 | 1007.0 |
| 20260509035505 | 59 | 42 | 0.0 | 2.6 | 0.00 | 0.00 | 0.00 | 92 | 1007.2 |
| 20260509034506 | 59 | 55 | 0.0 | 2.6 | 0.00 | 0.00 | 0.00 | 92 | 1007.2 |
| 20260509033506 | 59 | 45 | 0.9 | 2.6 | 0.00 | 0.00 | 0.00 | 92 | 1007.2 |
| 20260509033006 | 59 | 30 | 1.7 | 2.6 | 0.00 | 0.00 | 0.00 | 91 | 1007.1 |
| 20260509032506 | 59 | 28 | 1.7 | 2.6 | 0.00 | 0.00 | 0.00 | 91 | 1007.2 |
| 20260509032005 | 59 | 23 | 0.9 | 2.6 | 0.00 | 0.00 | 0.00 | 91 | 1007.2 |
| 20260509031005 | 60 | 46 | 0.0 | 0.9 | 0.00 | 0.00 | 0.00 | 91 | 1007.0 |
| 20260509030505 | 60 | 47 | 0.0 | 1.7 | 0.00 | 0.00 | 0.00 | 91 | 1006.9 |
| 20260509030005 | 60 | 47 | 0.0 | 0.9 | 0.00 | 0.00 | 0.00 | 91 | 1007.0 |
| 20260509025505 | 60 | 47 | 0.9 | 1.7 | 0.00 | 0.00 | 0.00 | 91 | 1007.0 |
| 20260509025006 | 60 | 47 | 0.9 | 2.6 | 0.00 | 0.00 | 0.00 | 91 | 1007.1 |
| 20260509024505 | 60 | 47 | 0.9 | 2.6 | 0.00 | 0.00 | 0.00 | 90 | 1007.1 |
| 20260509024005 | 60 | 28 | 0.0 | 0.9 | 0.00 | 0.00 | 0.00 | 90 | 1007.1 |
| 20260509023505 | 60 | 28 | 0.0 | 1.7 | 0.00 | 0.00 | 0.00 | 90 | 1007.2 |
| 20260509023006 | 61 | 21 | 0.9 | 2.6 | 0.00 | 0.00 | 0.00 | 89 | 1007.2 |
| 20260509022506 | 61 | 5 | 0.0 | 4.3 | 0.00 | 0.00 | 0.00 | 89 | 1007.1 |
| 20260509022005 | 61 | 354 | 1.7 | 2.6 | 0.00 | 0.00 | 0.00 | 89 | 1007.2 |
| 20260509020006 | 62 | 317 | 2.6 | 4.3 | 0.00 | 0.00 | 0.00 | 86 | 1007.2 |
| 20260509015505 | 62 | 22 | 0.0 | 1.7 | 0.00 | 0.00 | 0.00 | 85 | 1007.1 |
| 20260509015006 | 62 | 22 | 0.0 | 0.9 | 0.00 | 0.00 | 0.00 | 84 | 1007.0 |
| 20260509014505 | 62 | 22 | 1.7 | 2.6 | 0.00 | 0.00 | 0.00 | 83 | 1006.9 |
| 20260509014006 | 63 | 23 | 0.9 | 2.6 | 0.00 | 0.00 | 0.00 | 82 | 1007.0 |
| 20260509013506 | 63 | 23 | 0.9 | 2.6 | 0.00 | 0.00 | 0.00 | 81 | 1007.0 |
| 20260509012006 | 64 | 306 | 1.7 | 2.6 | 0.00 | 0.00 | 0.00 | 77 | 1007.0 |
| 20260509011506 | 64 | 296 | 0.9 | 1.7 | 0.00 | 0.00 | 0.00 | 76 | 1006.8 |
| 20260509011005 | 65 | 296 | 0.0 | 0.9 | 0.00 | 0.00 | 0.00 | 75 | 1006.8 |
| 20260509010506 | 65 | 296 | 0.9 | 7.0 | 0.00 | 0.00 | 0.00 | 73 | 1006.8 |
| 20260509010005 | 66 | 359 | 3.5 | 7.0 | 0.00 | 0.00 | 0.00 | 72 | 1006.8 |
| 20260509005506 | 67 | 19 | 2.6 | 7.8 | 0.00 | 0.00 | 0.00 | 69 | 1006.8 |
| 20260509005005 | 68 | 14 | 4.3 | 13.0 | 0.00 | 0.00 | 0.00 | 66 | 1007.0 |
| 20260509004505 | 69 | 347 | 4.3 | 13.0 | 0.00 | 0.00 | 0.00 | 57 | 1006.6 |
| 20260509003506 | 69 | 186 | 2.6 | 5.2 | 0.00 | 0.00 | 0.00 | 56 | 1006.3 |
| 20260509003006 | 69 | 189 | 2.6 | 4.3 | 0.00 | 0.00 | 0.00 | 55 | 1006.4 |
| 20260509002505 | 69 | 194 | 4.3 | 7.0 | 0.00 | 0.00 | 0.00 | 55 | 1006.4 |
| 20260509002005 | 69 | 188 | 4.3 | 10.4 | 0.00 | 0.00 | 0.00 | 55 | 1006.3 |
| 20260509001506 | 69 | 196 | 4.3 | 10.4 | 0.00 | 0.00 | 0.00 | 55 | 1006.4 |
| 20260509001006 | 69 | 197 | 4.3 | 10.4 | 0.00 | 0.00 | 0.00 | 55 | 1006.3 |
| 20260509000505 | 70 | 204 | 5.2 | 12.2 | 0.00 | 0.00 | 0.00 | 55 | 1006.4 |
| 20260509000005 | 70 | 183 | 3.5 | 8.7 | 0.00 | 0.00 | 0.00 | 55 | 1006.4 |
| 20260508235505 | 70 | 187 | 5.2 | 10.4 | 0.00 | 0.00 | 0.00 | 55 | 1006.5 |
| 20260508234005 | 70 | 190 | 5.2 | 7.8 | 0.00 | 0.00 | 0.00 | 54 | 1006.4 |
| 20260508233505 | 70 | 191 | 5.2 | 8.7 | 0.00 | 0.00 | 0.00 | 53 | 1006.4 |
| 20260508233006 | 71 | 194 | 5.2 | 8.7 | 0.00 | 0.00 | 0.00 | 54 | 1006.4 |
| 20260508232505 | 71 | 195 | 7.8 | 12.2 | 0.00 | 0.00 | 0.00 | 53 | 1006.4 |
| 20260508232005 | 71 | 193 | 5.2 | 10.4 | 0.00 | 0.00 | 0.00 | 53 | 1006.5 |
| 20260508231005 | 71 | 200 | 5.2 | 12.2 | 0.00 | 0.00 | 0.00 | 53 | 1006.8 |
| 20260508230505 | 71 | 214 | 7.0 | 12.2 | 0.00 | 0.00 | 0.00 | 52 | 1006.8 |
| 20260508230006 | 71 | 202 | 7.8 | 12.2 | 0.00 | 0.00 | 0.00 | 51 | 1006.9 |
| 20260508225005 | 72 | 210 | 6.1 | 12.2 | 0.00 | 0.00 | 0.00 | 52 | 1006.8 |
| 20260508223505 | 73 | 212 | 7.0 | 11.3 | 0.00 | 0.00 | 0.00 | 51 | 1006.8 |
| 20260508223006 | 73 | 203 | 6.1 | 13.0 | 0.00 | 0.00 | 0.00 | 50 | 1006.9 |
| 20260508222505 | 73 | 201 | 6.1 | 12.2 | 0.00 | 0.00 | 0.00 | 51 | 1006.9 |
| 20260508222005 | 73 | 217 | 6.1 | 14.8 | 0.00 | 0.00 | 0.00 | 49 | 1006.9 |
| 20260508221505 | 74 | 198 | 7.0 | 13.0 | 0.00 | 0.00 | 0.00 | 49 | 1006.8 |
| 20260508220505 | 73 | 217 | 5.2 | 10.4 | 0.00 | 0.00 | 0.00 | 51 | 1007.0 |
| 20260508220005 | 73 | 201 | 6.1 | 13.0 | 0.00 | 0.00 | 0.00 | 49 | 1006.9 |
| 20260508215505 | 73 | 207 | 5.2 | 10.4 | 0.00 | 0.00 | 0.00 | 50 | 1006.9 |
| 20260508215006 | 73 | 190 | 4.3 | 11.3 | 0.00 | 0.00 | 0.00 | 51 | 1007.0 |
| 20260508214505 | 73 | 215 | 7.8 | 13.0 | 0.00 | 0.00 | 0.00 | 50 | 1007.0 |
| 20260508214006 | 72 | 190 | 6.1 | 13.0 | 0.00 | 0.00 | 0.00 | 52 | 1007.0 |
| 20260508213006 | 71 | 187 | 6.1 | 11.3 | 0.00 | 0.00 | 0.00 | 52 | 1007.1 |
| 20260508212505 | 70 | 191 | 5.2 | 10.4 | 0.00 | 0.00 | 0.00 | 53 | 1007.2 |
| 20260508212005 | 70 | 211 | 4.3 | 8.7 | 0.00 | 0.00 | 0.00 | 52 | 1007.3 |
| 20260508211505 | 70 | 209 | 7.8 | 13.0 | 0.00 | 0.00 | 0.00 | 51 | 1007.4 |
| 20260508210505 | 71 | 225 | 7.0 | 12.2 | 0.00 | 0.00 | 0.00 | 51 | 1007.3 |
| 20260508210005 | 72 | 218 | 9.6 | 15.6 | 0.00 | 0.00 | 0.00 | 51 | 1007.4 |
| 20260508205505 | 72 | 219 | 8.7 | 14.8 | 0.00 | 0.00 | 0.00 | 50 | 1007.4 |
| 20260508204506 | 71 | 222 | 8.7 | 12.2 | 0.00 | 0.00 | 0.00 | 51 | 1007.5 |
| 20260508204006 | 71 | 210 | 7.8 | 14.8 | 0.00 | 0.00 | 0.00 | 52 | 1007.5 |
| 20260508203505 | 71 | 217 | 6.1 | 12.2 | 0.00 | 0.00 | 0.00 | 52 | 1007.6 |
| 20260508203006 | 71 | 222 | 8.7 | 17.4 | 0.00 | 0.00 | 0.00 | 51 | 1007.6 |
| 20260508202505 | 70 | 220 | 7.8 | 11.3 | 0.00 | 0.00 | 0.00 | 52 | 1007.8 |
| 20260508202005 | 70 | 217 | 8.7 | 15.6 | 0.00 | 0.00 | 0.00 | 52 | 1007.9 |